Time,TemperatureF,DewpointF,PressureIn,WindDirection,WindDirectionDegrees,WindSpeedMPH,WindSpeedGustMPH,Humidity,HourlyPrecipIn,Conditions,Clouds,dailyrainin,SolarRadiationWatts/m^2,SoftwareType,DateUTC
2013-04-29 00:01:00,69.0,61.9,29.91,SE,146,0.0,0.0,78,0.00,CLR,OVC,0.00,0.0,WeatherDisplay:10.37,2013-04-29 05:01:00,
2013-04-29 00:06:00,69.0,61.9,29.91,SSE,147,0.0,0.0,78,0.00,CLR,OVC,0.00,0.0,WeatherDisplay:10.37,2013-04-29 05:06:00,
2013-04-29 00:11:00,68.9,61.8,29.91,SE,146,0.0,0.0,78,0.00,CLR,OVC,0.00,0.0,WeatherDisplay:10.37,2013-04-29 05:11:00,
2013-04-29 00:16:00,68.7,61.6,29.91,SSE,147,1.2,0.0,78,0.00,CLR,OVC,0.00,0.0,WeatherDisplay:10.37,2013-04-29 05:16:00,
2013-04-29 00:21:00,68.5,61.7,29.90,SE,146,0.0,0.0,79,0.00,CLR,OVC,0.00,0.0,WeatherDisplay:10.37,2013-04-29 05:21:00,
2013-04-29 00:26:00,68.3,61.5,29.90,SE,146,0.0,0.0,79,0.00,CLR,OVC,0.00,0.0,WeatherDisplay:10.37,2013-04-29 05:26:00,
2013-04-29 00:31:00,68.1,61.3,29.90,SSE,147,0.0,0.0,79,0.00,CLR,OVC,0.00,0.0,WeatherDisplay:10.37,2013-04-29 05:31:00,
2013-04-29 00:36:00,67.9,61.5,29.90,SSE,147,0.0,0.0,80,0.00,CLR,OVC,0.00,0.0,WeatherDisplay:10.37,2013-04-29 05:36:00,
2013-04-29 00:41:00,67.7,61.3,29.90,SE,146,1.2,0.0,80,0.00,CLR,OVC,0.00,0.0,WeatherDisplay:10.37,2013-04-29 05:41:00,
2013-04-29 00:46:00,67.5,61.1,29.90,SSE,147,3.5,3.5,80,0.00,CLR,OVC,0.00,0.0,WeatherDisplay:10.37,2013-04-29 05:46:00,
2013-04-29 00:51:00,67.3,61.3,29.89,SSE,147,3.5,3.5,81,0.00,CLR,OVC,0.00,0.0,WeatherDisplay:10.37,2013-04-29 05:51:00,
2013-04-29 00:56:00,67.2,61.2,29.89,SE,146,1.2,1.2,81,0.00,CLR,OVC,0.00,0.0,WeatherDisplay:10.37,2013-04-29 05:56:00,
2013-04-29 01:01:00,67.2,61.2,29.89,SE,145,1.2,1.2,81,0.00,CLR,OVC,0.00,0.0,WeatherDisplay:10.37,2013-04-29 06:01:00,
2013-04-29 01:06:00,67.2,61.2,29.90,SE,142,1.2,0.0,81,0.00,CLR,OVC,0.00,0.0,WeatherDisplay:10.37,2013-04-29 06:06:00,
2013-04-29 01:11:00,67.2,61.2,29.89,SE,143,0.0,0.0,81,0.00,CLR,OVC,0.00,0.0,WeatherDisplay:10.37,2013-04-29 06:11:00,
2013-04-29 01:16:00,67.1,61.1,29.90,SE,143,0.0,0.0,81,0.00,CLR,OVC,0.00,0.0,WeatherDisplay:10.37,2013-04-29 06:16:00,
2013-04-29 01:21:00,67.1,61.1,29.89,SE,140,1.2,0.0,81,0.00,CLR,OVC,0.00,0.0,WeatherDisplay:10.37,2013-04-29 06:21:00,
2013-04-29 01:26:00,67.0,60.6,29.89,SE,140,0.0,0.0,80,0.00,CLR,OVC,0.00,0.0,WeatherDisplay:10.37,2013-04-29 06:26:00,
2013-04-29 01:31:00,66.9,60.9,29.89,SE,140,0.0,0.0,81,0.00,CLR,OVC,0.00,0.0,WeatherDisplay:10.37,2013-04-29 06:31:00,
2013-04-29 01:36:00,66.9,60.9,29.89,SE,140,1.2,1.2,81,0.00,CLR,OVC,0.00,0.0,WeatherDisplay:10.37,2013-04-29 06:36:00,
2013-04-29 01:41:00,66.8,60.8,29.89,SE,140,1.2,0.0,81,0.00,CLR,OVC,0.00,0.0,WeatherDisplay:10.37,2013-04-29 06:41:00,
2013-04-29 01:46:00,66.8,60.8,29.89,SE,144,2.3,2.3,81,0.00,CLR,OVC,0.00,0.0,WeatherDisplay:10.37,2013-04-29 06:46:00,
2013-04-29 01:51:00,66.8,60.8,29.89,SE,144,1.2,0.0,81,0.00,CLR,OVC,0.00,0.0,WeatherDisplay:10.37,2013-04-29 06:51:00,
2013-04-29 01:56:00,66.9,60.9,29.89,SE,143,2.3,2.3,81,0.00,CLR,OVC,0.00,0.0,WeatherDisplay:10.37,2013-04-29 06:56:00,
2013-04-29 02:01:00,66.9,60.9,29.89,SE,145,1.2,1.2,81,0.00,CLR,OVC,0.00,0.0,WeatherDisplay:10.37,2013-04-29 07:01:00,
2013-04-29 02:06:00,67.0,61.0,29.89,South,171,1.2,0.0,81,0.00,CLR,OVC,0.00,0.0,WeatherDisplay:10.37,2013-04-29 07:06:00,
2013-04-29 02:11:00,67.2,61.2,29.89,South,171,0.0,0.0,81,0.00,CLR,OVC,0.00,0.0,WeatherDisplay:10.37,2013-04-29 07:11:00,
2013-04-29 02:16:00,67.2,61.2,29.89,East,95,1.2,1.2,81,0.00,CLR,OVC,0.00,0.0,WeatherDisplay:10.37,2013-04-29 07:16:00,
2013-04-29 02:21:00,67.4,61.4,29.89,SSE,154,2.3,2.3,81,0.00,CLR,OVC,0.00,0.0,WeatherDisplay:10.37,2013-04-29 07:21:00,
2013-04-29 02:26:00,67.5,61.5,29.89,SSE,151,1.2,0.0,81,0.00,CLR,OVC,0.00,0.0,WeatherDisplay:10.37,2013-04-29 07:26:00,
2013-04-29 02:31:00,67.6,61.6,29.88,SSE,149,2.3,2.3,81,0.00,CLR,OVC,0.00,0.0,WeatherDisplay:10.37,2013-04-29 07:31:00,
2013-04-29 02:36:00,67.7,61.7,29.88,SE,136,3.5,3.5,81,0.00,CLR,OVC,0.00,0.0,WeatherDisplay:10.37,2013-04-29 07:36:00,
2013-04-29 02:41:00,67.8,61.4,29.88,SE,135,3.5,3.5,80,0.00,CLR,OVC,0.00,0.0,WeatherDisplay:10.37,2013-04-29 07:41:00,
2013-04-29 02:46:00,67.9,61.5,29.88,SE,136,2.3,2.3,80,0.00,CLR,OVC,0.00,0.0,WeatherDisplay:10.37,2013-04-29 07:46:00,
2013-04-29 02:51:00,67.9,61.5,29.88,SE,131,3.5,3.5,80,0.00,CLR,OVC,0.00,0.0,WeatherDisplay:10.37,2013-04-29 07:51:00,
2013-04-29 02:56:00,68.0,61.6,29.88,SE,136,3.5,3.5,80,0.00,CLR,OVC,0.00,0.0,WeatherDisplay:10.37,2013-04-29 07:56:00,
2013-04-29 03:01:00,68.0,61.6,29.88,SE,140,3.5,3.5,80,0.00,CLR,OVC,0.00,0.0,WeatherDisplay:10.37,2013-04-29 08:01:00,
2013-04-29 03:06:00,67.9,61.5,29.88,SE,140,1.2,1.2,80,0.00,CLR,OVC,0.00,0.0,WeatherDisplay:10.37,2013-04-29 08:06:00,
2013-04-29 03:11:00,67.9,61.5,29.88,SE,140,2.3,2.3,80,0.00,CLR,OVC,0.00,0.0,WeatherDisplay:10.37,2013-04-29 08:11:00,
2013-04-29 03:16:00,67.7,61.3,29.88,SE,140,0.0,0.0,80,0.00,CLR,OVC,0.00,0.0,WeatherDisplay:10.37,2013-04-29 08:16:00,
2013-04-29 03:21:00,67.6,61.6,29.88,SE,140,2.3,2.3,81,0.00,CLR,OVC,0.00,0.0,WeatherDisplay:10.37,2013-04-29 08:21:00,
2013-04-29 03:26:00,67.5,61.5,29.88,SE,144,2.3,2.3,81,0.00,CLR,OVC,0.00,0.0,WeatherDisplay:10.37,2013-04-29 08:26:00,
2013-04-29 03:31:00,67.4,61.4,29.88,SE,142,1.2,0.0,81,0.00,CLR,OVC,0.00,0.0,WeatherDisplay:10.37,2013-04-29 08:31:00,
2013-04-29 03:36:00,67.2,61.2,29.88,SE,143,0.0,0.0,81,0.00,CLR,OVC,0.00,0.0,WeatherDisplay:10.37,2013-04-29 08:36:00,
2013-04-29 03:41:00,67.1,61.1,29.87,SE,134,3.5,3.5,81,0.00,CLR,OVC,0.00,0.0,WeatherDisplay:10.37,2013-04-29 08:41:00,
2013-04-29 03:46:00,67.0,61.0,29.87,SE,135,1.2,1.2,81,0.00,CLR,OVC,0.00,0.0,WeatherDisplay:10.37,2013-04-29 08:46:00,
2013-04-29 03:51:00,66.8,61.1,29.88,SE,125,4.0,4.0,82,0.00,CLR,OVC,0.00,0.0,WeatherDisplay:10.37,2013-04-29 08:51:00,
2013-04-29 03:56:00,66.7,61.0,29.88,ESE,123,1.2,0.0,82,0.00,CLR,OVC,0.00,0.0,WeatherDisplay:10.37,2013-04-29 08:56:00,
2013-04-29 04:01:00,66.6,61.3,29.88,ESE,123,1.2,0.0,83,0.00,CLR,OVC,0.00,0.0,WeatherDisplay:10.37,2013-04-29 09:01:00,
2013-04-29 04:06:00,66.4,61.1,29.88,SE,124,1.2,1.2,83,0.00,CLR,OVC,0.00,0.0,WeatherDisplay:10.37,2013-04-29 09:06:00,
2013-04-29 04:11:00,66.3,61.0,29.88,SE,125,1.2,0.0,83,0.00,CLR,OVC,0.00,0.0,WeatherDisplay:10.37,2013-04-29 09:11:00,
2013-04-29 04:16:00,66.2,60.9,29.88,SE,125,1.2,1.2,83,0.00,CLR,OVC,0.00,0.0,WeatherDisplay:10.37,2013-04-29 09:16:00,
2013-04-29 04:21:00,66.1,61.1,29.88,SE,125,3.5,3.5,84,0.00,CLR,OVC,0.00,0.0,WeatherDisplay:10.37,2013-04-29 09:21:00,
2013-04-29 04:26:00,66.1,61.1,29.88,SE,125,0.0,0.0,84,0.00,CLR,OVC,0.00,0.0,WeatherDisplay:10.37,2013-04-29 09:26:00,
2013-04-29 04:31:00,66.0,61.0,29.88,SE,125,0.0,0.0,84,0.00,CLR,OVC,0.00,0.0,WeatherDisplay:10.37,2013-04-29 09:31:00,
2013-04-29 04:36:00,65.9,60.9,29.89,SE,125,0.0,0.0,84,0.00,CLR,OVC,0.00,0.0,WeatherDisplay:10.37,2013-04-29 09:36:00,
2013-04-29 04:41:00,65.8,60.8,29.88,SE,125,0.0,0.0,84,0.00,CLR,OVC,0.00,0.0,WeatherDisplay:10.37,2013-04-29 09:41:00,
2013-04-29 04:46:00,65.7,60.7,29.88,SE,125,0.0,0.0,84,0.00,CLR,OVC,0.00,0.0,WeatherDisplay:10.37,2013-04-29 09:46:00,
2013-04-29 04:51:00,65.5,60.9,29.88,SE,125,0.0,0.0,85,0.00,CLR,OVC,0.00,0.0,WeatherDisplay:10.37,2013-04-29 09:51:00,
2013-04-29 04:56:00,65.3,60.7,29.88,SE,125,0.0,0.0,85,0.00,CLR,OVC,0.00,0.0,WeatherDisplay:10.37,2013-04-29 09:56:00,
2013-04-29 05:01:00,65.2,60.9,29.88,SE,125,0.0,0.0,86,0.00,CLR,OVC,0.00,0.0,WeatherDisplay:10.37,2013-04-29 10:01:00,
2013-04-29 05:06:00,65.2,60.9,29.89,SE,125,0.0,0.0,86,0.00,CLR,OVC,0.00,0.0,WeatherDisplay:10.37,2013-04-29 10:06:00,
2013-04-29 05:11:00,65.0,60.7,29.89,SE,131,1.2,0.0,86,0.00,CLR,OVC,0.00,0.0,WeatherDisplay:10.37,2013-04-29 10:11:00,
2013-04-29 05:16:00,64.9,60.6,29.89,SE,130,1.2,0.0,86,0.00,CLR,OVC,0.00,0.0,WeatherDisplay:10.37,2013-04-29 10:16:00,
2013-04-29 05:21:00,64.8,60.5,29.88,SE,130,0.0,0.0,86,0.00,CLR,OVC,0.00,0.0,WeatherDisplay:10.37,2013-04-29 10:21:00,
2013-04-29 05:26:00,64.6,60.3,29.88,SE,131,0.0,0.0,86,0.00,CLR,OVC,0.00,0.0,WeatherDisplay:10.37,2013-04-29 10:26:00,
2013-04-29 05:31:00,64.3,60.0,29.89,SE,131,0.0,0.0,86,0.00,CLR,OVC,0.00,0.0,WeatherDisplay:10.37,2013-04-29 10:31:00,
2013-04-29 05:36:00,64.1,59.8,29.89,SE,131,0.0,0.0,86,0.00,CLR,OVC,0.00,0.0,WeatherDisplay:10.37,2013-04-29 10:36:00,
2013-04-29 05:41:00,64.0,59.7,29.89,SE,130,0.0,0.0,86,0.00,CLR,OVC,0.00,0.0,WeatherDisplay:10.37,2013-04-29 10:41:00,
2013-04-29 05:46:00,63.8,59.5,29.89,SE,131,0.0,0.0,86,0.00,CLR,OVC,0.00,0.0,WeatherDisplay:10.37,2013-04-29 10:46:00,
2013-04-29 05:51:00,63.8,59.9,29.89,SE,131,0.0,0.0,87,0.00,CLR,OVC,0.00,0.0,WeatherDisplay:10.37,2013-04-29 10:51:00,
2013-04-29 05:56:00,63.6,59.7,29.89,SE,130,0.0,0.0,87,0.00,CLR,OVC,0.00,0.0,WeatherDisplay:10.37,2013-04-29 10:56:00,
2013-04-29 06:01:00,63.5,59.6,29.89,SE,131,1.2,0.0,87,0.00,CLR,OVC,0.00,0.0,WeatherDisplay:10.37,2013-04-29 11:01:00,
2013-04-29 06:06:00,63.4,59.5,29.89,SE,130,0.0,0.0,87,0.00,CLR,OVC,0.00,0.0,WeatherDisplay:10.37,2013-04-29 11:06:00,
2013-04-29 06:11:00,63.2,59.3,29.89,SE,131,0.0,0.0,87,0.00,CLR,OVC,0.00,0.0,WeatherDisplay:10.37,2013-04-29 11:11:00,
2013-04-29 06:16:00,63.1,59.5,29.89,SE,132,0.0,0.0,88,0.00,CLR,OVC,0.00,0.0,WeatherDisplay:10.37,2013-04-29 11:16:00,
2013-04-29 06:21:00,62.9,59.3,29.89,SE,131,0.0,0.0,88,0.00,CLR,OVC,0.00,0.0,WeatherDisplay:10.37,2013-04-29 11:21:00,
2013-04-29 06:26:00,62.7,59.1,29.89,SE,132,0.0,0.0,88,0.00,CLR,OVC,0.00,0.0,WeatherDisplay:10.37,2013-04-29 11:26:00,
2013-04-29 06:31:00,62.6,59.0,29.90,SE,131,0.0,0.0,88,0.00,CLR,OVC,0.00,0.0,WeatherDisplay:10.37,2013-04-29 11:31:00,
2013-04-29 06:36:00,62.5,58.9,29.90,SE,130,0.0,0.0,88,0.00,CLR,OVC,0.00,0.0,WeatherDisplay:10.37,2013-04-29 11:36:00,
2013-04-29 06:41:00,62.4,58.8,29.90,SE,132,0.0,0.0,88,0.00,CLR,OVC,0.00,0.0,WeatherDisplay:10.37,2013-04-29 11:41:00,
2013-04-29 06:46:00,62.3,58.7,29.90,SE,132,0.0,0.0,88,0.00,CLR,OVC,0.00,0.5,WeatherDisplay:10.37,2013-04-29 11:46:00,
2013-04-29 06:51:00,62.1,58.5,29.91,SE,132,0.0,0.0,88,0.00,CLR,OVC,0.00,0.9,WeatherDisplay:10.37,2013-04-29 11:51:00,
2013-04-29 06:56:00,62.0,58.4,29.91,SE,126,0.0,0.0,88,0.00,CLR,OVC,0.00,1.2,WeatherDisplay:10.37,2013-04-29 11:56:00,
2013-04-29 07:01:00,61.8,58.5,29.91,SE,127,0.0,0.0,89,0.00,CLR,OVC,0.00,1.6,WeatherDisplay:10.37,2013-04-29 12:01:00,
2013-04-29 07:06:00,61.7,58.4,29.91,SE,127,0.0,0.0,89,0.00,CLR,OVC,0.00,1.9,WeatherDisplay:10.37,2013-04-29 12:06:00,
2013-04-29 07:11:00,61.6,58.3,29.91,SE,127,0.0,0.0,89,0.00,CLR,OVC,0.00,2.5,WeatherDisplay:10.37,2013-04-29 12:11:00,
2013-04-29 07:16:00,61.5,58.2,29.92,WSW,245,0.0,0.0,89,0.00,CLR,OVC,0.00,2.6,WeatherDisplay:10.37,2013-04-29 12:16:00,
2013-04-29 07:21:00,61.5,58.2,29.92,WSW,245,0.0,0.0,89,0.00,CLR,OVC,0.00,3.0,WeatherDisplay:10.37,2013-04-29 12:21:00,
2013-04-29 07:26:00,61.5,58.2,29.92,WSW,245,0.0,0.0,89,0.00,CLR,OVC,0.00,3.2,WeatherDisplay:10.37,2013-04-29 12:26:00,
2013-04-29 07:31:00,61.5,58.5,29.92,WSW,245,0.0,0.0,90,0.00,CLR,OVC,0.00,3.5,WeatherDisplay:10.37,2013-04-29 12:31:00,
2013-04-29 07:36:00,61.6,58.6,29.92,WSW,245,0.0,0.0,90,0.00,CLR,OVC,0.00,3.9,WeatherDisplay:10.37,2013-04-29 12:36:00,
2013-04-29 07:41:00,61.6,58.6,29.92,WSW,245,0.0,0.0,90,0.00,CLR,OVC,0.00,3.9,WeatherDisplay:10.37,2013-04-29 12:41:00,
2013-04-29 07:46:00,61.7,58.7,29.93,WSW,245,0.0,0.0,90,0.00,CLR,OVC,0.00,3.7,WeatherDisplay:10.37,2013-04-29 12:46:00,
2013-04-29 07:51:00,61.8,59.1,29.93,WSW,245,0.0,0.0,91,0.00,CLR,OVC,0.00,3.7,WeatherDisplay:10.37,2013-04-29 12:51:00,
2013-04-29 07:56:00,62.1,59.4,29.93,WSW,245,1.2,0.0,91,0.00,CLR,OVC,0.00,3.3,WeatherDisplay:10.37,2013-04-29 12:56:00,
2013-04-29 08:01:00,62.3,59.6,29.93,WSW,244,0.0,0.0,91,0.00,OVC,,0.00,3.3,WeatherDisplay:10.37,2013-04-29 13:01:00,
2013-04-29 08:06:00,62.5,59.8,29.92,WSW,244,0.0,0.0,91,0.00,OVC,,0.00,3.7,WeatherDisplay:10.37,2013-04-29 13:06:00,
2013-04-29 08:11:00,62.7,60.0,29.92,WSW,244,1.2,0.0,91,0.00,OVC,,0.00,4.4,WeatherDisplay:10.37,2013-04-29 13:11:00,
2013-04-29 08:16:00,62.8,60.4,29.92,WSW,244,1.2,1.2,92,0.00,OVC,,0.00,4.9,WeatherDisplay:10.37,2013-04-29 13:16:00,
2013-04-29 08:21:00,63.0,60.6,29.92,WSW,244,0.0,0.0,92,0.00,OVC,,0.00,4.9,WeatherDisplay:10.37,2013-04-29 13:21:00,
2013-04-29 08:26:00,63.4,61.0,29.92,WSW,244,1.2,0.0,92,0.00,OVC,,0.00,4.0,WeatherDisplay:10.37,2013-04-29 13:26:00,
2013-04-29 08:31:00,63.8,61.4,29.93,WSW,244,0.0,0.0,92,0.00,OVC,,0.00,4.0,WeatherDisplay:10.37,2013-04-29 13:31:00,
2013-04-29 08:36:00,64.0,61.6,29.93,WSW,244,0.0,0.0,92,0.00,OVC,,0.00,3.9,WeatherDisplay:10.37,2013-04-29 13:36:00,
2013-04-29 08:41:00,64.3,61.9,29.93,SW,218,2.3,0.0,92,0.00,OVC,,0.00,4.2,WeatherDisplay:10.37,2013-04-29 13:41:00,
2013-04-29 08:46:00,64.8,62.4,29.93,SSW,213,1.2,1.2,92,0.00,OVC,,0.00,4.7,WeatherDisplay:10.37,2013-04-29 13:46:00,
2013-04-29 08:51:00,65.2,63.1,29.93,South,172,2.3,2.3,93,0.00,OVC,,0.00,4.9,WeatherDisplay:10.37,2013-04-29 13:51:00,
2013-04-29 08:56:00,65.7,63.3,29.93,SSE,167,1.2,1.2,92,0.00,OVC,,0.00,5.1,WeatherDisplay:10.37,2013-04-29 13:56:00,
2013-04-29 09:01:00,66.1,64.0,29.93,SSE,167,2.3,0.0,93,0.00,OVC,,0.00,5.3,WeatherDisplay:10.37,2013-04-29 14:01:00,
2013-04-29 09:06:00,66.7,64.6,29.93,South,190,3.5,3.5,93,0.00,OVC,,0.00,5.4,WeatherDisplay:10.37,2013-04-29 14:06:00,
2013-04-29 09:11:00,67.3,64.9,29.93,South,179,3.5,3.5,92,0.00,OVC,,0.00,5.8,WeatherDisplay:10.37,2013-04-29 14:11:00,
2013-04-29 09:16:00,67.9,65.5,29.93,SE,125,3.5,3.5,92,0.00,OVC,,0.00,6.2,WeatherDisplay:10.37,2013-04-29 14:16:00,
2013-04-29 09:21:00,68.3,65.6,29.93,SE,135,2.0,2.0,91,0.00,OVC,,0.00,18.3,WeatherDisplay:10.37,2013-04-29 14:21:00,
2013-04-29 09:26:00,68.9,65.8,29.92,NW,309,3.5,3.5,90,0.00,OVC,,0.00,6.9,WeatherDisplay:10.37,2013-04-29 14:26:00,
2013-04-29 09:31:00,69.5,66.1,29.92,ESE,118,3.5,3.5,89,0.00,OVC,,0.00,7.2,WeatherDisplay:10.37,2013-04-29 14:31:00,
2013-04-29 09:36:00,70.1,66.4,29.93,SE,129,4.6,4.6,88,0.00,OVC,,0.00,7.6,WeatherDisplay:10.37,2013-04-29 14:36:00,
2013-04-29 09:41:00,70.7,66.3,29.93,SSE,161,3.5,3.5,86,0.00,OVC,,0.00,8.1,WeatherDisplay:10.37,2013-04-29 14:41:00,
2013-04-29 09:46:00,71.2,66.5,29.93,South,170,2.3,2.3,85,0.00,OVC,,0.00,8.3,WeatherDisplay:10.37,2013-04-29 14:46:00,
2013-04-29 09:51:00,71.6,66.5,29.93,WSW,248,3.5,3.5,84,0.00,OVC,,0.00,8.6,WeatherDisplay:10.37,2013-04-29 14:51:00,
2013-04-29 09:56:00,72.1,66.3,29.93,SSE,148,3.5,3.5,82,0.00,OVC,,0.00,8.8,WeatherDisplay:10.37,2013-04-29 14:56:00,
2013-04-29 10:01:00,72.5,66.3,29.93,SE,142,3.5,3.5,81,0.00,OVC,,0.00,9.1,WeatherDisplay:10.37,2013-04-29 15:01:00,
2013-04-29 10:06:00,72.9,66.4,29.93,SE,127,2.3,2.3,80,0.00,OVC,,0.00,9.7,WeatherDisplay:10.37,2013-04-29 15:06:00,
2013-04-29 10:11:00,73.3,66.8,29.93,ESE,113,3.5,3.5,80,0.00,OVC,,0.00,9.8,WeatherDisplay:10.37,2013-04-29 15:11:00,
2013-04-29 10:16:00,73.7,66.8,29.93,WNW,296,3.5,3.5,79,0.00,OVC,,0.00,9.5,WeatherDisplay:10.37,2013-04-29 15:16:00,
2013-04-29 10:21:00,74.0,67.1,29.93,SE,146,4.0,4.0,79,0.00,OVC,,0.00,13.4,WeatherDisplay:10.37,2013-04-29 15:21:00,
2013-04-29 10:26:00,74.4,66.7,29.93,NNW,333,2.3,2.3,77,0.00,OVC,,0.00,70.0,WeatherDisplay:10.37,2013-04-29 15:26:00,
2013-04-29 10:31:00,74.7,66.6,29.93,SE,142,4.6,4.6,76,0.00,OVC,,0.00,27.8,WeatherDisplay:10.37,2013-04-29 15:31:00,
2013-04-29 10:36:00,75.2,67.1,29.93,WSW,246,3.5,3.5,76,0.00,OVC,,0.00,54.0,WeatherDisplay:10.37,2013-04-29 15:36:00,
2013-04-29 10:41:00,75.8,66.1,29.92,SE,131,3.5,3.5,72,0.00,OVC,,0.00,54.0,WeatherDisplay:10.37,2013-04-29 15:41:00,
2013-04-29 10:46:00,76.4,66.3,29.92,WNW,290,4.6,4.6,71,0.00,OVC,,0.00,78.0,WeatherDisplay:10.37,2013-04-29 15:46:00,
2013-04-29 10:51:00,76.8,66.7,29.92,SSE,149,3.5,3.5,71,0.00,OVC,,0.00,80.0,WeatherDisplay:10.37,2013-04-29 15:51:00,
2013-04-29 10:56:00,77.3,66.3,29.92,ESE,113,3.5,3.5,69,0.00,OVC,,0.00,80.3,WeatherDisplay:10.37,2013-04-29 15:56:00,
2013-04-29 11:01:00,77.8,66.4,29.92,SE,129,4.6,4.6,68,0.00,OVC,,0.00,79.3,WeatherDisplay:10.37,2013-04-29 16:01:00,
2013-04-29 11:06:00,78.3,66.0,29.92,ESE,123,5.8,5.8,66,0.00,OVC,,0.00,79.1,WeatherDisplay:10.37,2013-04-29 16:06:00,
2013-04-29 11:11:00,78.7,65.9,29.92,SE,142,4.6,4.6,65,0.00,OVC,,0.00,82.6,WeatherDisplay:10.37,2013-04-29 16:11:00,
2013-04-29 11:16:00,78.9,65.2,29.92,SE,145,4.6,4.6,63,0.00,OVC,,0.00,79.6,WeatherDisplay:10.37,2013-04-29 16:16:00,
2013-04-29 11:21:00,79.3,65.1,29.92,SE,140,3.5,3.5,62,0.00,OVC,,0.00,83.0,WeatherDisplay:10.37,2013-04-29 16:21:00,
2013-04-29 11:26:00,79.8,65.2,29.92,SE,139,3.5,3.5,61,0.00,OVC,,0.00,90.9,WeatherDisplay:10.37,2013-04-29 16:26:00,
2013-04-29 11:31:00,80.4,66.2,29.92,SE,126,3.5,3.5,62,0.00,OVC,,0.00,86.5,WeatherDisplay:10.37,2013-04-29 16:31:00,
2013-04-29 11:36:00,80.7,65.0,29.92,SE,132,5.8,5.8,59,0.00,OVC,,0.00,77.0,WeatherDisplay:10.37,2013-04-29 16:36:00,
2013-04-29 11:41:00,80.9,66.2,29.92,West,259,2.3,2.3,61,0.00,OVC,,0.00,81.0,WeatherDisplay:10.37,2013-04-29 16:41:00,
2013-04-29 11:46:00,81.1,64.4,29.91,SSE,159,2.3,0.0,57,0.00,OVC,,0.00,91.1,WeatherDisplay:10.37,2013-04-29 16:46:00,
2013-04-29 11:51:00,81.5,65.3,29.92,SSE,155,3.5,3.5,58,0.00,OVC,,0.00,87.2,WeatherDisplay:10.37,2013-04-29 16:51:00,
2013-04-29 11:56:00,81.9,65.2,29.91,ESE,111,10.4,10.4,57,0.00,OVC,,0.00,91.2,WeatherDisplay:10.37,2013-04-29 16:56:00,
2013-04-29 12:01:00,82.3,64.5,29.91,SE,141,3.5,3.5,55,0.00,OVC,,0.00,94.0,WeatherDisplay:10.37,2013-04-29 17:01:00,
2013-04-29 12:06:00,82.6,64.3,29.91,SE,138,4.6,4.6,54,0.00,OVC,,0.00,94.7,WeatherDisplay:10.37,2013-04-29 17:06:00,
2013-04-29 12:11:00,82.8,65.0,29.91,SE,128,3.5,3.5,55,0.00,OVC,,0.00,95.3,WeatherDisplay:10.37,2013-04-29 17:11:00,
2013-04-29 12:16:00,82.9,64.5,29.91,ESE,119,5.8,5.8,54,0.00,OVC,,0.00,95.8,WeatherDisplay:10.37,2013-04-29 17:16:00,
2013-04-29 12:21:00,82.8,63.9,29.90,SE,136,4.6,4.6,53,0.00,OVC,,0.00,97.2,WeatherDisplay:10.37,2013-04-29 17:21:00,
2013-04-29 12:26:00,82.7,64.4,29.90,SE,136,5.8,5.8,54,0.00,OVC,,0.00,97.2,WeatherDisplay:10.37,2013-04-29 17:26:00,
2013-04-29 12:31:00,82.8,66.0,29.90,SSE,149,4.6,4.6,57,0.00,OVC,,0.00,96.9,WeatherDisplay:10.37,2013-04-29 17:31:00,
2013-04-29 12:36:00,82.8,66.0,29.90,ESE,115,9.2,9.2,57,0.00,OVC,,0.00,97.7,WeatherDisplay:10.37,2013-04-29 17:36:00,
2013-04-29 12:41:00,82.9,65.6,29.90,SE,128,4.0,4.0,56,0.00,OVC,,0.00,98.4,WeatherDisplay:10.37,2013-04-29 17:41:00,
2013-04-29 12:46:00,82.9,65.6,29.90,SE,138,4.6,4.6,56,0.00,OVC,,0.00,97.4,WeatherDisplay:10.37,2013-04-29 17:46:00,
2013-04-29 12:51:00,83.1,66.3,29.90,SE,146,3.5,3.5,57,0.00,OVC,,0.00,97.6,WeatherDisplay:10.37,2013-04-29 17:51:00,
2013-04-29 12:56:00,83.0,66.7,29.90,South,182,5.8,5.8,58,0.00,OVC,,0.00,93.7,WeatherDisplay:10.37,2013-04-29 17:56:00,
2013-04-29 13:01:00,82.2,66.0,29.90,SSE,157,5.8,5.8,58,0.01,RA,OVC,0.01,91.4,WeatherDisplay:10.37,2013-04-29 18:01:00,
2013-04-29 13:06:00,81.1,65.9,29.90,SSE,156,8.1,8.1,60,0.02,RA,OVC,0.02,91.9,WeatherDisplay:10.37,2013-04-29 18:06:00,
2013-04-29 13:11:00,80.2,65.5,29.90,SSE,148,4.6,4.6,61,0.02,RA,OVC,0.02,91.9,WeatherDisplay:10.37,2013-04-29 18:11:00,
2013-04-29 13:16:00,80.2,64.6,29.90,SE,142,4.6,4.6,59,0.02,OVC,,0.02,92.3,WeatherDisplay:10.37,2013-04-29 18:16:00,
2013-04-29 13:21:00,80.2,63.1,29.90,SSE,165,6.9,6.9,56,0.02,OVC,,0.02,96.9,WeatherDisplay:10.37,2013-04-29 18:21:00,
2013-04-29 13:26:00,80.4,62.8,29.89,SE,134,5.8,5.8,55,0.02,OVC,,0.02,99.1,WeatherDisplay:10.37,2013-04-29 18:26:00,
2013-04-29 13:31:00,80.7,64.1,29.89,SE,134,4.6,4.6,57,0.02,OVC,,0.02,99.5,WeatherDisplay:10.37,2013-04-29 18:31:00,
2013-04-29 13:36:00,81.1,63.9,29.89,SE,142,9.2,9.2,56,0.02,OVC,,0.02,100.0,WeatherDisplay:10.37,2013-04-29 18:36:00,
2013-04-29 13:41:00,81.5,63.8,29.89,SSE,152,3.5,3.5,55,0.02,OVC,,0.02,99.8,WeatherDisplay:10.37,2013-04-29 18:41:00,
2013-04-29 13:46:00,81.8,63.0,29.89,SE,124,4.6,4.6,53,0.02,OVC,,0.02,99.7,WeatherDisplay:10.37,2013-04-29 18:46:00,
2013-04-29 13:51:00,82.2,63.9,29.88,SE,129,4.6,4.6,54,0.02,OVC,,0.02,99.3,WeatherDisplay:10.37,2013-04-29 18:51:00,
2013-04-29 13:56:00,82.5,63.6,29.88,SE,134,3.5,3.5,53,0.02,OVC,,0.02,99.1,WeatherDisplay:10.37,2013-04-29 18:56:00,
2013-04-29 14:01:00,82.8,63.9,29.88,SE,142,9.2,9.2,53,0.01,OVC,,0.02,98.6,WeatherDisplay:10.37,2013-04-29 19:01:00,
2013-04-29 14:06:00,82.8,63.4,29.88,SE,140,5.8,5.8,52,0.00,OVC,,0.02,97.9,WeatherDisplay:10.37,2013-04-29 19:06:00,
2013-04-29 14:11:00,82.7,63.3,29.88,ESE,120,8.1,8.1,52,0.00,OVC,,0.02,97.4,WeatherDisplay:10.37,2013-04-29 19:11:00,
2013-04-29 14:16:00,82.8,62.8,29.88,SSE,159,10.4,10.4,51,0.00,OVC,,0.02,97.2,WeatherDisplay:10.37,2013-04-29 19:16:00,
2013-04-29 14:21:00,83.0,63.6,29.88,ESE,122,5.8,5.8,52,0.00,OVC,,0.02,96.3,WeatherDisplay:10.37,2013-04-29 19:21:00,
2013-04-29 14:26:00,83.1,62.5,29.88,South,173,4.6,4.6,50,0.00,OVC,,0.02,92.5,WeatherDisplay:10.37,2013-04-29 19:26:00,
2013-04-29 14:31:00,83.1,63.7,29.88,SSE,160,8.1,8.1,52,0.00,OVC,,0.02,91.9,WeatherDisplay:10.37,2013-04-29 19:31:00,
2013-04-29 14:36:00,82.9,63.5,29.87,SE,126,5.8,5.8,52,0.00,OVC,,0.02,94.4,WeatherDisplay:10.37,2013-04-29 19:36:00,
2013-04-29 14:41:00,82.9,62.4,29.87,SE,145,4.6,4.6,50,0.00,OVC,,0.02,93.5,WeatherDisplay:10.37,2013-04-29 19:41:00,
2013-04-29 14:46:00,83.1,63.7,29.87,SE,140,4.6,4.6,52,0.00,OVC,,0.02,93.2,WeatherDisplay:10.37,2013-04-29 19:46:00,
2013-04-29 14:51:00,83.4,63.4,29.87,SE,139,3.5,3.5,51,0.00,OVC,,0.02,91.6,WeatherDisplay:10.37,2013-04-29 19:51:00,
2013-04-29 14:56:00,83.7,63.7,29.86,SSE,153,8.1,8.1,51,0.00,OVC,,0.02,91.8,WeatherDisplay:10.37,2013-04-29 19:56:00,
2013-04-29 15:01:00,83.7,61.3,29.86,SE,126,4.6,4.6,47,0.00,OVC,,0.02,90.4,WeatherDisplay:10.37,2013-04-29 20:01:00,
2013-04-29 15:06:00,83.8,62.6,29.86,SSE,151,3.5,3.5,49,0.00,OVC,,0.02,89.5,WeatherDisplay:10.37,2013-04-29 20:06:00,
2013-04-29 15:11:00,83.7,61.9,29.86,SE,125,10.4,10.4,48,0.00,OVC,,0.02,88.4,WeatherDisplay:10.37,2013-04-29 20:11:00,
2013-04-29 15:16:00,83.8,62.6,29.86,SSE,168,4.6,4.6,49,0.00,OVC,,0.02,81.0,WeatherDisplay:10.37,2013-04-29 20:16:00,
2013-04-29 15:21:00,83.6,63.0,29.85,SE,128,7.0,7.0,50,0.00,OVC,,0.02,66.3,WeatherDisplay:10.37,2013-04-29 20:21:00,
2013-04-29 15:26:00,83.4,62.8,29.85,SSE,166,4.6,4.6,50,0.00,OVC,,0.02,55.5,WeatherDisplay:10.37,2013-04-29 20:26:00,
2013-04-29 15:31:00,83.4,62.2,29.85,South,178,5.8,5.8,49,0.00,OVC,,0.02,12.1,WeatherDisplay:10.37,2013-04-29 20:31:00,
2013-04-29 15:36:00,83.0,63.6,29.85,SSE,157,3.5,3.5,52,0.00,OVC,,0.02,15.3,WeatherDisplay:10.37,2013-04-29 20:36:00,
2013-04-29 15:41:00,83.0,63.6,29.84,ESE,121,5.8,5.8,52,0.00,OVC,,0.02,19.5,WeatherDisplay:10.37,2013-04-29 20:41:00,
2013-04-29 15:46:00,83.1,64.2,29.84,ESE,123,6.0,6.0,53,0.00,OVC,,0.02,17.1,WeatherDisplay:10.37,2013-04-29 20:46:00,
2013-04-29 15:51:00,83.2,64.3,29.84,ESE,114,5.8,5.8,53,0.00,OVC,,0.02,12.5,WeatherDisplay:10.37,2013-04-29 20:51:00,
2013-04-29 15:56:00,83.3,63.8,29.84,SSE,147,4.6,4.6,52,0.00,OVC,,0.02,13.0,WeatherDisplay:10.37,2013-04-29 20:56:00,
2013-04-29 16:01:00,83.4,62.8,29.84,SE,144,9.2,9.2,50,0.00,OVC,,0.02,23.0,WeatherDisplay:10.37,2013-04-29 21:01:00,
2013-04-29 16:06:00,83.5,62.9,29.84,SE,128,3.5,3.5,50,0.00,OVC,,0.02,14.6,WeatherDisplay:10.37,2013-04-29 21:06:00,
2013-04-29 16:11:00,83.6,64.1,29.83,ESE,116,5.8,5.8,52,0.00,OVC,,0.02,39.0,WeatherDisplay:10.37,2013-04-29 21:11:00,
2013-04-29 16:16:00,83.6,64.1,29.83,SE,146,11.5,11.5,52,0.00,OVC,,0.02,14.4,WeatherDisplay:10.37,2013-04-29 21:16:00,
2013-04-29 16:21:00,83.4,63.4,29.83,SE,128,6.9,6.9,51,0.00,OVC,,0.02,12.0,WeatherDisplay:10.37,2013-04-29 21:21:00,
2013-04-29 16:26:00,83.5,64.0,29.83,SSE,154,5.8,5.8,52,0.00,OVC,,0.02,13.9,WeatherDisplay:10.37,2013-04-29 21:26:00,
2013-04-29 16:31:00,83.3,64.4,29.83,SE,144,11.5,11.5,53,0.00,OVC,,0.02,14.1,WeatherDisplay:10.37,2013-04-29 21:31:00,
2013-04-29 16:36:00,82.9,65.1,29.82,SE,140,9.2,9.2,55,0.00,OVC,,0.02,17.2,WeatherDisplay:10.37,2013-04-29 21:36:00,
2013-04-29 16:41:00,82.9,64.0,29.82,SSE,148,5.0,5.0,53,0.00,OVC,,0.02,41.8,WeatherDisplay:10.37,2013-04-29 21:41:00,
2013-04-29 16:46:00,82.9,64.0,29.82,SSE,159,8.1,8.1,53,0.00,OVC,,0.02,50.4,WeatherDisplay:10.37,2013-04-29 21:46:00,
2013-04-29 16:51:00,83.0,63.0,29.82,SE,132,5.8,5.8,51,0.00,OVC,,0.02,59.2,WeatherDisplay:10.37,2013-04-29 21:51:00,
2013-04-29 16:56:00,83.0,63.0,29.82,SE,141,10.4,10.4,51,0.00,OVC,,0.02,58.4,WeatherDisplay:10.37,2013-04-29 21:56:00,
2013-04-29 17:01:00,83.0,63.0,29.82,SE,134,10.4,10.4,51,0.00,OVC,,0.02,32.7,WeatherDisplay:10.37,2013-04-29 22:01:00,
2013-04-29 17:06:00,82.9,63.5,29.81,SE,137,9.2,9.2,52,0.00,OVC,,0.02,12.7,WeatherDisplay:10.37,2013-04-29 22:06:00,
2013-04-29 17:11:00,83.0,64.1,29.81,SE,128,5.8,5.8,53,0.00,OVC,,0.02,24.1,WeatherDisplay:10.37,2013-04-29 22:11:00,
2013-04-29 17:16:00,83.1,63.7,29.81,ESE,121,4.0,4.0,52,0.00,OVC,,0.02,53.1,WeatherDisplay:10.37,2013-04-29 22:16:00,
2013-04-29 17:22:00,83.1,62.0,29.81,SE,125,5.8,5.8,49,0.00,OVC,,0.02,46.6,WeatherDisplay:10.37,2013-04-29 22:22:00,
2013-04-29 17:26:00,83.0,63.6,29.81,SE,127,6.9,6.9,52,0.00,OVC,,0.02,49.2,WeatherDisplay:10.37,2013-04-29 22:26:00,
2013-04-29 17:31:00,83.0,63.0,29.81,ESE,123,3.5,3.5,51,0.00,OVC,,0.02,47.6,WeatherDisplay:10.37,2013-04-29 22:31:00,
2013-04-29 17:36:00,83.2,62.6,29.81,SSE,164,5.8,5.8,50,0.00,OVC,,0.02,46.8,WeatherDisplay:10.37,2013-04-29 22:36:00,
2013-04-29 17:41:00,83.4,62.2,29.81,SE,126,6.0,6.0,49,0.00,OVC,,0.02,44.3,WeatherDisplay:10.37,2013-04-29 22:41:00,
2013-04-29 17:46:00,83.2,63.2,29.81,SE,144,5.0,5.0,51,0.00,OVC,,0.02,42.5,WeatherDisplay:10.37,2013-04-29 22:46:00,
2013-04-29 17:51:00,83.0,60.7,29.81,SE,132,6.9,6.9,47,0.00,OVC,,0.02,41.3,WeatherDisplay:10.37,2013-04-29 22:51:00,
2013-04-29 17:56:00,82.8,60.5,29.81,SE,140,6.9,6.9,47,0.00,OVC,,0.02,39.4,WeatherDisplay:10.37,2013-04-29 22:56:00,
2013-04-29 18:01:00,82.6,61.5,29.81,SE,129,4.6,4.6,49,0.00,OVC,,0.02,33.8,WeatherDisplay:10.37,2013-04-29 23:01:00,
2013-04-29 18:06:00,82.3,61.2,29.81,South,183,9.2,9.2,49,0.00,OVC,,0.02,35.7,WeatherDisplay:10.37,2013-04-29 23:06:00,
2013-04-29 18:11:00,82.2,60.6,29.81,SE,128,9.2,9.2,48,0.00,OVC,,0.02,34.3,WeatherDisplay:10.37,2013-04-29 23:11:00,
2013-04-29 18:16:00,82.0,61.0,29.81,SE,130,9.2,9.2,49,0.00,BKN,OVC,0.02,32.0,WeatherDisplay:10.37,2013-04-29 23:16:00,
2013-04-29 18:21:00,81.8,61.9,29.81,ESE,102,4.6,4.6,51,0.00,BKN,OVC,0.02,30.1,WeatherDisplay:10.37,2013-04-29 23:21:00,
2013-04-29 18:26:00,81.7,61.8,29.81,SE,139,10.4,10.4,51,0.00,BKN,OVC,0.02,27.9,WeatherDisplay:10.37,2013-04-29 23:26:00,
2013-04-29 18:31:00,81.5,61.6,29.80,South,171,10.4,10.4,51,0.00,BKN,OVC,0.02,26.4,WeatherDisplay:10.37,2013-04-29 23:31:00,
2013-04-29 18:36:00,81.4,61.0,29.81,SE,136,6.0,6.0,50,0.00,BKN,OVC,0.02,24.8,WeatherDisplay:10.37,2013-04-29 23:36:00,
2013-04-29 18:41:00,81.3,60.9,29.81,SE,144,10.4,10.4,50,0.00,BKN,OVC,0.02,22.9,WeatherDisplay:10.37,2013-04-29 23:41:00,
2013-04-29 18:46:00,81.0,61.2,29.80,SE,136,11.5,11.5,51,0.00,BKN,OVC,0.02,20.9,WeatherDisplay:10.37,2013-04-29 23:46:00,
2013-04-29 18:51:00,80.9,61.6,29.80,SE,136,12.7,12.7,52,0.00,BKN,OVC,0.02,5.8,WeatherDisplay:10.37,2013-04-29 23:51:00,
2013-04-29 18:56:00,80.7,60.9,29.80,SE,126,6.9,6.9,51,0.00,SCT,OVC,0.02,16.3,WeatherDisplay:10.37,2013-04-29 23:56:00,
2013-04-29 19:01:00,80.5,60.7,29.81,SE,146,6.9,6.9,51,0.00,SCT,OVC,0.02,14.2,WeatherDisplay:10.37,2013-04-30 00:01:00,
2013-04-29 19:06:00,80.3,60.0,29.81,SSE,152,6.9,6.9,50,0.00,CLR,OVC,0.02,12.1,WeatherDisplay:10.37,2013-04-30 00:06:00,
2013-04-29 19:11:00,80.2,60.4,29.81,ESE,113,12.7,12.7,51,0.00,CLR,OVC,0.02,10.2,WeatherDisplay:10.37,2013-04-30 00:11:00,
2013-04-29 19:16:00,80.0,60.8,29.81,SE,143,9.2,9.2,52,0.00,CLR,OVC,0.02,8.6,WeatherDisplay:10.37,2013-04-30 00:16:00,
2013-04-29 19:21:00,79.8,60.6,29.81,SE,127,6.9,6.9,52,0.00,CLR,OVC,0.02,7.2,WeatherDisplay:10.37,2013-04-30 00:21:00,
2013-04-29 19:26:00,79.5,60.3,29.81,SE,146,6.9,6.9,52,0.00,CLR,OVC,0.02,5.8,WeatherDisplay:10.37,2013-04-30 00:26:00,
2013-04-29 19:31:00,79.3,59.6,29.81,SE,132,10.0,10.0,51,0.00,CLR,OVC,0.02,4.4,WeatherDisplay:10.37,2013-04-30 00:31:00,
2013-04-29 19:36:00,79.0,59.9,29.81,SE,130,11.5,11.5,52,0.00,CLR,OVC,0.02,3.3,WeatherDisplay:10.37,2013-04-30 00:36:00,
2013-04-29 19:41:00,78.7,59.6,29.81,SE,132,5.8,5.8,52,0.00,CLR,OVC,0.02,2.5,WeatherDisplay:10.37,2013-04-30 00:41:00,
2013-04-29 19:46:00,78.5,59.4,29.81,SSE,156,5.8,5.8,52,0.00,CLR,OVC,0.02,2.1,WeatherDisplay:10.37,2013-04-30 00:46:00,
2013-04-29 19:51:00,78.2,59.7,29.82,SE,145,5.8,5.8,53,0.00,CLR,OVC,0.02,1.6,WeatherDisplay:10.37,2013-04-30 00:51:00,
2013-04-29 19:56:00,78.0,60.0,29.82,SE,145,4.6,4.6,54,0.00,CLR,OVC,0.02,1.2,WeatherDisplay:10.37,2013-04-30 00:56:00,
2013-04-29 20:01:00,77.7,59.7,29.82,SSE,149,3.5,3.5,54,0.00,CLR,OVC,0.02,0.7,WeatherDisplay:10.37,2013-04-30 01:01:00,
2013-04-29 20:06:00,77.4,60.0,29.82,SE,129,3.5,3.5,55,0.00,CLR,OVC,0.02,0.0,WeatherDisplay:10.37,2013-04-30 01:06:00,
2013-04-29 20:11:00,77.2,59.8,29.82,South,176,8.1,8.1,55,0.00,CLR,OVC,0.02,0.0,WeatherDisplay:10.37,2013-04-30 01:11:00,
2013-04-29 20:16:00,76.9,60.0,29.82,SE,145,3.5,3.5,56,0.00,CLR,OVC,0.02,0.0,WeatherDisplay:10.37,2013-04-30 01:16:00,
2013-04-29 20:21:00,76.6,60.2,29.82,SE,130,4.6,4.6,57,0.00,CLR,OVC,0.02,0.0,WeatherDisplay:10.37,2013-04-30 01:21:00,
2013-04-29 20:26:00,76.4,60.0,29.82,SE,131,3.5,3.5,57,0.00,CLR,OVC,0.02,0.0,WeatherDisplay:10.37,2013-04-30 01:26:00,
2013-04-29 20:31:00,76.1,60.2,29.82,SE,141,3.5,3.5,58,0.00,CLR,OVC,0.02,0.0,WeatherDisplay:10.37,2013-04-30 01:31:00,
2013-04-29 20:36:00,75.9,60.5,29.83,SE,142,4.6,4.6,59,0.00,CLR,OVC,0.02,0.0,WeatherDisplay:10.37,2013-04-30 01:36:00,
2013-04-29 20:41:00,75.7,60.4,29.83,SE,144,2.3,2.3,59,0.00,CLR,OVC,0.02,0.0,WeatherDisplay:10.37,2013-04-30 01:41:00,
2013-04-29 20:46:00,75.5,60.6,29.83,SE,144,2.3,2.3,60,0.00,CLR,OVC,0.02,0.0,WeatherDisplay:10.37,2013-04-30 01:46:00,
2013-04-29 20:51:00,75.2,60.4,29.83,SE,144,3.5,3.5,60,0.00,CLR,OVC,0.02,0.0,WeatherDisplay:10.37,2013-04-30 01:51:00,
2013-04-29 20:56:00,74.9,60.5,29.83,SE,144,3.5,3.5,61,0.00,CLR,OVC,0.02,0.0,WeatherDisplay:10.37,2013-04-30 01:56:00,
2013-04-29 21:01:00,74.7,60.4,29.83,SE,144,1.2,1.2,61,0.00,CLR,OVC,0.02,0.0,WeatherDisplay:10.37,2013-04-30 02:01:00,
2013-04-29 21:06:00,74.5,60.6,29.83,SE,144,1.2,1.2,62,0.00,CLR,OVC,0.02,0.0,WeatherDisplay:10.37,2013-04-30 02:06:00,
2013-04-29 21:11:00,74.3,60.4,29.83,SE,144,1.2,0.0,62,0.00,CLR,OVC,0.02,0.0,WeatherDisplay:10.37,2013-04-30 02:11:00,
2013-04-29 21:16:00,74.1,60.7,29.83,SE,144,1.2,1.2,63,0.00,CLR,OVC,0.02,0.0,WeatherDisplay:10.37,2013-04-30 02:16:00,
2013-04-29 21:21:00,73.9,60.5,29.83,SE,144,2.3,2.3,63,0.00,CLR,OVC,0.02,0.0,WeatherDisplay:10.37,2013-04-30 02:21:00,
2013-04-29 21:26:00,73.6,60.2,29.84,SE,144,0.0,0.0,63,0.00,CLR,OVC,0.02,0.0,WeatherDisplay:10.37,2013-04-30 02:26:00,
2013-04-29 21:31:00,73.3,60.4,29.84,SE,144,2.3,2.3,64,0.00,CLR,OVC,0.02,0.0,WeatherDisplay:10.37,2013-04-30 02:31:00,
2013-04-29 21:36:00,73.1,60.2,29.84,SE,144,2.3,2.3,64,0.00,CLR,OVC,0.02,0.0,WeatherDisplay:10.37,2013-04-30 02:36:00,
2013-04-29 21:41:00,72.8,60.3,29.84,SE,136,3.5,3.5,65,0.00,CLR,OVC,0.02,0.0,WeatherDisplay:10.37,2013-04-30 02:41:00,
2013-04-29 21:46:00,72.6,60.2,29.84,SE,136,1.2,1.2,65,0.00,CLR,OVC,0.02,0.0,WeatherDisplay:10.37,2013-04-30 02:46:00,
2013-04-29 21:51:00,72.3,60.3,29.84,SE,136,2.3,2.3,66,0.00,CLR,OVC,0.02,0.0,WeatherDisplay:10.37,2013-04-30 02:51:00,
2013-04-29 21:56:00,72.2,60.2,29.84,SE,137,2.3,2.3,66,0.00,CLR,OVC,0.02,0.0,WeatherDisplay:10.37,2013-04-30 02:56:00,
2013-04-29 22:01:00,72.0,60.0,29.84,SE,136,1.2,0.0,66,0.00,CLR,OVC,0.02,0.0,WeatherDisplay:10.37,2013-04-30 03:01:00,
2013-04-29 22:06:00,71.7,60.2,29.84,SE,136,1.2,0.0,67,0.00,CLR,OVC,0.02,0.0,WeatherDisplay:10.37,2013-04-30 03:06:00,
2013-04-29 22:11:00,71.5,60.0,29.84,SE,136,1.2,1.2,67,0.00,CLR,OVC,0.02,0.0,WeatherDisplay:10.37,2013-04-30 03:11:00,
2013-04-29 22:16:00,71.3,60.2,29.84,SE,136,1.2,1.2,68,0.00,CLR,OVC,0.02,0.0,WeatherDisplay:10.37,2013-04-30 03:16:00,
2013-04-29 22:21:00,71.1,60.0,29.84,SE,137,2.3,2.3,68,0.00,CLR,OVC,0.02,0.0,WeatherDisplay:10.37,2013-04-30 03:21:00,
2013-04-29 22:26:00,70.9,59.8,29.84,SE,137,3.5,3.5,68,0.00,CLR,OVC,0.02,0.0,WeatherDisplay:10.37,2013-04-30 03:26:00,
2013-04-29 22:31:00,70.8,60.1,29.84,SE,137,3.5,3.5,69,0.00,CLR,OVC,0.02,0.0,WeatherDisplay:10.37,2013-04-30 03:31:00,
2013-04-29 22:36:00,70.7,60.0,29.84,SE,138,3.5,3.5,69,0.00,CLR,OVC,0.02,0.0,WeatherDisplay:10.37,2013-04-30 03:36:00,
2013-04-29 22:41:00,70.6,59.9,29.84,SE,138,1.2,0.0,69,0.00,CLR,OVC,0.02,0.0,WeatherDisplay:10.37,2013-04-30 03:41:00,
2013-04-29 22:46:00,70.5,59.8,29.84,SE,137,1.2,1.2,69,0.00,CLR,OVC,0.02,0.0,WeatherDisplay:10.37,2013-04-30 03:46:00,
2013-04-29 22:51:00,70.4,59.7,29.84,SE,137,1.2,0.0,69,0.00,CLR,OVC,0.02,0.0,WeatherDisplay:10.37,2013-04-30 03:51:00,
2013-04-29 22:56:00,70.3,60.1,29.84,SE,138,1.2,0.0,70,0.00,CLR,OVC,0.02,0.0,WeatherDisplay:10.37,2013-04-30 03:56:00,
2013-04-29 23:01:00,70.2,60.0,29.84,SE,138,0.0,0.0,70,0.00,CLR,OVC,0.02,0.0,WeatherDisplay:10.37,2013-04-30 04:01:00,
2013-04-29 23:06:00,70.1,59.9,29.84,ESE,105,3.5,3.5,70,0.00,CLR,OVC,0.02,0.0,WeatherDisplay:10.37,2013-04-30 04:06:00,
2013-04-29 23:11:00,70.1,59.9,29.84,SE,126,3.5,3.5,70,0.00,CLR,OVC,0.02,0.0,WeatherDisplay:10.37,2013-04-30 04:11:00,
2013-04-29 23:16:00,70.1,59.9,29.84,ESE,108,6.9,6.9,70,0.00,CLR,OVC,0.02,0.0,WeatherDisplay:10.37,2013-04-30 04:16:00,
2013-04-29 23:21:00,70.0,59.8,29.84,ESE,109,2.3,2.3,70,0.00,CLR,OVC,0.02,0.0,WeatherDisplay:10.37,2013-04-30 04:21:00,
2013-04-29 23:26:00,69.9,59.7,29.84,SE,130,3.5,3.5,70,0.00,CLR,OVC,0.02,0.0,WeatherDisplay:10.37,2013-04-30 04:26:00,
2013-04-29 23:31:00,69.9,59.7,29.84,SE,133,3.5,3.5,70,0.00,CLR,OVC,0.02,0.0,WeatherDisplay:10.37,2013-04-30 04:31:00,
2013-04-29 23:36:00,69.7,59.5,29.84,SE,133,1.2,0.0,70,0.00,CLR,OVC,0.02,0.0,WeatherDisplay:10.37,2013-04-30 04:36:00,
2013-04-29 23:41:00,69.5,59.3,29.84,SE,132,1.2,0.0,70,0.00,CLR,OVC,0.02,0.0,WeatherDisplay:10.37,2013-04-30 04:41:00,
2013-04-29 23:46:00,69.4,59.6,29.84,SE,133,0.0,0.0,71,0.00,CLR,OVC,0.02,0.0,WeatherDisplay:10.37,2013-04-30 04:46:00,
2013-04-29 23:51:00,69.1,59.3,29.84,SE,133,1.2,0.0,71,0.00,CLR,OVC,0.02,0.0,WeatherDisplay:10.37,2013-04-30 04:51:00,
2013-04-29 23:56:00,69.0,59.2,29.84,SE,133,1.2,0.0,71,0.00,RA,OVC,0.02,0.0,WeatherDisplay:10.37,2013-04-30 04:56:00,